Weather History for Sierra Vista, AZ

Change the Weather History Date:

Monday, April 29, 2013

  Actual Average Record
Temperature  
Mean Temperature 74 °F -  
Max Temperature 87 °F 77 °F 91 °F (1992)
Min Temperature 62 °F 55 °F 33 °F (1984)
Cooling Degree Days 10    
Growing Degree Days 24 (Base 50)    
Moisture  
Dew Point 5 °F    
Average Humidity 7    
Maximum Humidity 13    
Minimum Humidity 4    
Precipitation  
Precipitation 0.00 in - - ()
Sea Level Pressure  
Sea Level Pressure 29.76 in    
Wind  
Wind Speed 10 mph (West)    
Max Wind Speed 21 mph    
Max Gust Speed 29 mph    
Visibility 10 miles    
Events      
Averages and records for this station are not official NWS values.
T = Trace of Precipitation, MM = Missing Value Source: NWS Daily Summary

Daily Weather History Graph

Daily Weather History Graph

Search for Another Location

Airport:

Trip Planner

Search our weather history database for the weather conditions in past years. The results will help you decide how hot, cold, wet, or windy it might be!

Date:

Astronomy

Apr. 29, 2013 Rise Set
Actual Time 5:37 AM MST 7:00 PM MST
Civil Twilight 5:11 AM MST 7:25 PM MST
Nautical Twilight 4:41 AM MST 7:56 PM MST
Astronomical Twilight 4:09 AM MST 8:28 PM MST
Moon 11:22 PM MST (4/29) 9:08 AM MST (4/29)
Length of Visible Light 14h 13m
Length of Day
13h 22m
Waning Gibbous, 79% of the Moon is Illuminated
Apr 29
Waning Gibbous
May 2
Last Quarter
May 9
New
May 17
First Quarter
May 24
Full

Hourly Weather History & Observations

Time (MST) Temp. Dew Point Humidity Pressure Visibility Wind Dir Wind Speed Gust Speed Precip Events Conditions
12:55 AM 64.4 °F 8.6 °F 11% 29.81 in 10.0 mi West 10.4 mph - N/A   Clear
1:55 AM 64.4 °F 8.6 °F 11% 29.80 in 10.0 mi West 11.5 mph - N/A   Clear
2:55 AM 64.4 °F 6.8 °F 10% 29.79 in 10.0 mi WSW 8.1 mph - N/A   Clear
3:55 AM 62.6 °F 6.8 °F 11% 29.79 in 10.0 mi WSW 6.9 mph - N/A   Clear
4:55 AM 64.4 °F 5.0 °F 10% 29.79 in 10.0 mi West 11.5 mph - N/A   Clear
5:55 AM 62.6 °F 6.8 °F 11% 29.81 in 10.0 mi WSW 11.5 mph - N/A   Clear
6:55 AM 69.8 °F 6.8 °F 9% 29.81 in 10.0 mi West 11.5 mph - N/A   Clear
7:55 AM 75.2 °F 5.0 °F 7% 29.83 in 10.0 mi WNW 6.9 mph - N/A   Clear
8:55 AM 77.0 °F 5.0 °F 6% 29.82 in 10.0 mi Calm Calm - N/A   Clear
9:55 AM 78.8 °F 3.2 °F 5% 29.82 in 10.0 mi NNW 3.5 mph - N/A   Partly Cloudy
10:55 AM 82.4 °F 3.2 °F 5% 29.81 in 10.0 mi Variable 3.5 mph - N/A   Partly Cloudy
11:55 AM 84.2 °F 1.4 °F 4% 29.78 in 10.0 mi Variable 3.5 mph - N/A   Partly Cloudy
12:55 PM 86.0 °F 1.4 °F 4% 29.75 in 10.0 mi NW 15.0 mph 28.8 mph N/A   Scattered Clouds
1:55 PM 86.0 °F 1.4 °F 4% 29.73 in 10.0 mi North 11.5 mph 23.0 mph N/A   Scattered Clouds
2:55 PM 87.8 °F 3.2 °F 4% 29.70 in 10.0 mi NW 18.4 mph 24.2 mph N/A   Scattered Clouds
3:55 PM 87.8 °F 3.2 °F 4% 29.69 in 10.0 mi West 9.2 mph 28.8 mph N/A   Scattered Clouds
4:55 PM 86.0 °F 1.4 °F 4% 29.68 in 10.0 mi West 11.5 mph 18.4 mph N/A   Scattered Clouds
5:55 PM 84.2 °F 3.2 °F 5% 29.69 in 10.0 mi West 9.2 mph - N/A   Scattered Clouds
6:55 PM 80.6 °F 3.2 °F 5% 29.69 in 10.0 mi NW 8.1 mph - N/A   Partly Cloudy
7:55 PM 73.4 °F 6.8 °F 8% 29.71 in 10.0 mi WSW 10.4 mph - N/A   Clear
8:55 PM 73.4 °F 5.0 °F 7% 29.72 in 10.0 mi SW 10.4 mph - N/A   Clear
9:55 PM 69.8 °F 6.8 °F 9% 29.72 in 10.0 mi WSW 11.5 mph - N/A   Clear
10:55 PM 71.6 °F 6.8 °F 8% 29.72 in 10.0 mi West 20.7 mph - N/A   Clear
11:55 PM 71.6 °F 17.6 °F 13% 29.73 in 10.0 mi West 12.7 mph - N/A   Clear